Flag for Canada Weather past 2 weeks in Stephenville, Newfoundland and Labrador, Canada

Now
41 °F

Sprinkles. Overcast.


Feels Like: 35 °F
Forecast: 15 / 39 °F
Wind: 10 mph from Southeast

Location: Stephenville

Current Time: Feb 1, 2015 at 2:53:20 AM

Latest Report: Feb 1, 2015 at 1:30 AM


Visibility: 15 mi

Pressure: 29.35 "Hg

Humidity: 81%

Dew point: 36 °F

Location of StephenvilleLocation

Historic Weather in Stephenville — Graph

°F

Stephenville temperature yesterday

Maximum temperature yesterday: 39 °F (at 8:30 PM)
Minimum temperature yesterday: 23 °F (at 6:30 AM)
Average temperature yesterday: 31 °F

Past Weeks' High & Low Weather Summary

 TemperatureHumidityPressure
High45 °F (Jan 25, 5:30 AM)100% (Jan 28, 11:30 PM)30.46 "Hg (Jan 28, 11:30 PM)
Low10 °F (Jan 18, 12:30 AM)62% (Jan 26, 4:30 PM)28.36 "Hg (Jan 25, 9:30 AM)
Average25 °F80%29.79 "Hg
* Reported Jan 17 1:30 AM — Feb 1 1:30 AM, Stephenville, Weather by CustomWeather, © 2014

Note: Actual official high and low records may vary slightly from our data, if they occured in-between our weather recording intervals... More about our weather records

Advertising

Stephenville weather history for previous 24 hours

 ConditionsComfort  
Time TempWeatherWind HumidityBarometerVisibility
1:30 AM
Feb 1
41 °FSprinkles. Overcast.10 mph81%29.35 "Hg15 mi
12:30 AM41 °FSprinkles. Overcast.22 mph81%29.36 "Hg15 mi
11:30 PM
Jan 31
37 °FSprinkles. Mostly cloudy.21 mph93%29.36 "Hg12 mi
10:30 PM39 °FSprinkles. Mostly cloudy.24 mph87%29.36 "Hg12 mi
9:30 PM39 °FSprinkles. Overcast.32 mph87%29.36 "Hg15 mi
8:30 PM39 °FSprinkles. Mostly cloudy.30 mph87%29.40 "Hg15 mi
7:30 PM37 °FSprinkles. Overcast.32 mph87%29.46 "Hg15 mi
6:30 PM36 °FSprinkles. Overcast.35 mph87%29.47 "Hg15 mi
5:30 PM37 °FOvercast.32 mph81%29.50 "Hg15 mi
4:30 PM37 °FMore clouds than sun.22 mph75%29.54 "Hg15 mi
3:30 PM36 °FPartly sunny.30 mph75%29.57 "Hg15 mi
2:30 PM34 °FPartly sunny.25 mph75%29.61 "Hg15 mi
1:30 PM32 °FPartly sunny.20 mph75%29.66 "Hg15 mi
12:30 PM30 °FPartly sunny.20 mph75%29.71 "Hg15 mi
11:30 AM28 °FPartly sunny.20 mph80%29.78 "Hg15 mi
10:30 AM27 °FMore clouds than sun.17 mph80%29.84 "Hg15 mi
9:30 AM25 °FMostly cloudy.17 mph86%29.84 "Hg15 mi
8:30 AM25 °FBroken clouds.13 mph86%29.86 "Hg15 mi
7:30 AM25 °FBroken clouds.10 mph86%29.84 "Hg15 mi
6:30 AM23 °FPassing clouds.15 mph93%29.82 "Hg15 mi
5:30 AM25 °FMostly cloudy.9 mph93%29.87 "Hg15 mi
4:30 AM25 °FMostly cloudy.8 mph93%29.88 "Hg15 mi
3:30 AM25 °FMostly cloudy.5 mph93%29.88 "Hg15 mi
2:30 AM25 °FMostly cloudy.3 mph93%29.87 "Hg15 mi
Weather by CustomWeather, © 2014

See weather overviewHow to use our weather pages